Flag for Brazil Weather past 2 weeks in Fortaleza, Ceará, Brazil

Now
82 °F

Passing clouds.


Feels Like: 87 °F
Forecast: N/A
Wind: 13 mph from East

Location: Fortaleza Aeropor-To

Current Time: May 5, 2015 at 7:21:57 PM

Latest Report: May 5, 2015 at 6:00 PM


Visibility: N/A

Pressure: 29.86 "Hg

Humidity: 70%

Dew point: 72 °F

Location of FortalezaLocation

Historic Weather in Fortaleza — Graph

°F

Fortaleza temperature yesterday

Maximum temperature yesterday: 88 °F (at 12:00 PM)
Minimum temperature yesterday: 77 °F (at 12:00 AM)
Average temperature yesterday: 81 °F

Past Weeks' High & Low Weather Summary

 TemperatureHumidityPressure
High88 °F (Apr 28, 11:00 AM)94% (Apr 23, 1:00 AM)29.98 "Hg (Apr 23, 1:00 AM)
Low73 °F (Apr 23, 6:00 AM)52% (May 4, 12:00 PM)29.77 "Hg (May 1, 4:00 PM)
Average81 °F76%29.88 "Hg
* Reported Apr 20 5:00 PM — May 5 5:00 PM, Fortaleza, Weather by CustomWeather, © 2015

Note: Actual official high and low records may vary slightly from our data, if they occured in-between our weather recording intervals... More about our weather records

Advertising

Fortaleza weather history for previous 24 hours

 ConditionsComfort  
Time TempWeatherWind HumidityBarometerVisibility
5:00 PM
Tue, May 5
82 °FPassing clouds.15 mph70%29.83 "HgN/A
4:00 PM84 °FPassing clouds.16 mph66%29.83 "HgN/A
3:00 PM84 °FPassing clouds.15 mph66%29.83 "HgN/A
2:00 PM86 °FPassing clouds.17 mph62%29.86 "HgN/A
1:00 PM86 °FPartly sunny.16 mph62%29.89 "HgN/A
12:00 PM86 °FPartly sunny.16 mph62%29.89 "HgN/A
11:00 AM86 °FPartly sunny.13 mph62%29.92 "HgN/A
10:00 AM84 °FPartly sunny.10 mph66%29.95 "HgN/A
9:00 AM82 °FPartly sunny.12 mph70%29.95 "HgN/A
8:00 AM81 °FScattered clouds.10 mph79%29.95 "HgN/A
7:00 AM79 °FScattered clouds.7 mph84%29.92 "HgN/A
6:00 AM77 °FScattered clouds.7 mph83%29.89 "HgN/A
5:00 AM77 °FPassing clouds.6 mph83%29.89 "HgN/A
4:00 AM77 °FPassing clouds.5 mph83%29.86 "HgN/A
3:00 AM77 °FPassing clouds.9 mph83%29.86 "HgN/A
2:00 AM79 °FPassing clouds.5 mph79%29.89 "HgN/A
1:00 AM79 °FPassing clouds.7 mph79%29.89 "HgN/A
12:00 AM79 °FPassing clouds.3 mph79%29.89 "HgN/A
11:00 PM
Mon, May 4
79 °FPassing clouds.6 mph79%29.92 "HgN/A
10:00 PM81 °FPassing clouds.9 mph74%29.92 "HgN/A
9:00 PM81 °FPassing clouds.8 mph74%29.92 "HgN/A
8:00 PM81 °FPassing clouds.9 mph74%29.89 "HgN/A
7:00 PM81 °FClear.8 mph74%29.89 "Hg10 mi
Weather by CustomWeather, © 2015

See weather overviewHow to use our weather pages